![]() |
EMODnet Physics ERDDAP
Easier access to scientific data |
log in|
Brought to you by EMODnet Physics |
| Dataset Title: | NDBC - Collection of dew point temperature (DEWT) TimeSeries - IN SITU MultiPointTimeSeriesObservation
|
| Institution: | NDBC (Dataset ID: TS_DEWT_NDBC) |
| Information: | Summary
| License
| FGDC
| ISO 19115
| Metadata
| Background
| Subset
| Data Access Form
| Make a graph
|
| Name | Last modified | Size | Description | |
|---|---|---|---|---|
| Parent Directory | - | - | ||
| APRP7_TS_DEWT_012009.nc | 04-Dec-2024 23:56 | 1691286 | ||
| APRP7_TS_DEWT_012010.nc | 05-Dec-2024 00:14 | 1677330 | ||
| APRP7_TS_DEWT_012014.nc | 05-Dec-2024 00:27 | 1658995 | ||
| APRP7_TS_DEWT_012015.nc | 05-Dec-2024 00:42 | 1829649 | ||
| APRP7_TS_DEWT_012016.nc | 05-Dec-2024 00:48 | 1836358 | ||
| APRP7_TS_DEWT_012017.nc | 05-Dec-2024 00:54 | 1831795 | ||
| APRP7_TS_DEWT_012018.nc | 05-Dec-2024 00:59 | 3682879 | ||
| APRP7_TS_DEWT_012019.nc | 05-Dec-2024 01:05 | 1669481 | ||
| APRP7_TS_DEWT_012020.nc | 05-Dec-2024 01:11 | 1661078 | ||
| APRP7_TS_DEWT_012021.nc | 05-Dec-2024 01:17 | 1672936 | ||
| APRP7_TS_DEWT_012022.nc | 05-Dec-2024 01:36 | 1671592 | ||
| APRP7_TS_DEWT_012023.nc | 05-Dec-2024 01:46 | 1675699 | ||
| APRP7_TS_DEWT_022009.nc | 04-Dec-2024 23:58 | 1673601 | ||
| APRP7_TS_DEWT_022010.nc | 05-Dec-2024 00:14 | 4933727 | ||
| APRP7_TS_DEWT_022014.nc | 05-Dec-2024 00:29 | 1832722 | ||
| APRP7_TS_DEWT_022015.nc | 05-Dec-2024 00:43 | 1679647 | ||
| APRP7_TS_DEWT_022016.nc | 05-Dec-2024 00:49 | 1828371 | ||
| APRP7_TS_DEWT_022017.nc | 05-Dec-2024 00:54 | 1830456 | ||
| APRP7_TS_DEWT_022018.nc | 05-Dec-2024 01:00 | 1747910 | ||
| APRP7_TS_DEWT_022019.nc | 05-Dec-2024 01:06 | 1834895 | ||
| APRP7_TS_DEWT_022020.nc | 05-Dec-2024 01:12 | 5687314 | ||
| APRP7_TS_DEWT_022021.nc | 05-Dec-2024 01:18 | 1674707 | ||
| APRP7_TS_DEWT_022022.nc | 05-Dec-2024 01:36 | 1634158 | ||
| APRP7_TS_DEWT_022023.nc | 05-Dec-2024 01:48 | 1663893 | ||
| APRP7_TS_DEWT_032009.nc | 05-Dec-2024 00:00 | 1678836 | ||
| APRP7_TS_DEWT_032010.nc | 05-Dec-2024 00:15 | 1679333 | ||
| APRP7_TS_DEWT_032013.nc | 05-Dec-2024 00:20 | 1678127 | ||
| APRP7_TS_DEWT_032014.nc | 05-Dec-2024 00:31 | 5964581 | ||
| APRP7_TS_DEWT_032015.nc | 05-Dec-2024 00:43 | 5461629 | ||
| APRP7_TS_DEWT_032016.nc | 05-Dec-2024 00:49 | 1828841 | ||
| APRP7_TS_DEWT_032017.nc | 05-Dec-2024 00:55 | 1673922 | ||
| APRP7_TS_DEWT_032018.nc | 05-Dec-2024 01:00 | 1839869 | ||
| APRP7_TS_DEWT_032019.nc | 05-Dec-2024 01:06 | 1832412 | ||
| APRP7_TS_DEWT_032020.nc | 05-Dec-2024 01:12 | 1671758 | ||
| APRP7_TS_DEWT_032021.nc | 05-Dec-2024 01:20 | 1656904 | ||
| APRP7_TS_DEWT_032022.nc | 05-Dec-2024 01:37 | 5730835 | ||
| APRP7_TS_DEWT_032023.nc | 05-Dec-2024 01:50 | 5274789 | ||
| APRP7_TS_DEWT_042009.nc | 05-Dec-2024 00:01 | 434092 | ||
| APRP7_TS_DEWT_042010.nc | 05-Dec-2024 00:15 | 450346 | ||
| APRP7_TS_DEWT_042013.nc | 05-Dec-2024 00:21 | 442522 | ||
| APRP7_TS_DEWT_042014.nc | 05-Dec-2024 00:33 | 444078 | ||
| APRP7_TS_DEWT_042015.nc | 05-Dec-2024 00:44 | 450094 | ||
| APRP7_TS_DEWT_042016.nc | 05-Dec-2024 00:49 | 442951 | ||
| APRP7_TS_DEWT_042017.nc | 05-Dec-2024 00:55 | 444317 | ||
| APRP7_TS_DEWT_042018.nc | 05-Dec-2024 01:01 | 445662 | ||
| APRP7_TS_DEWT_042019.nc | 05-Dec-2024 01:07 | 436332 | ||
| APRP7_TS_DEWT_042020.nc | 05-Dec-2024 01:13 | 443761 | ||
| APRP7_TS_DEWT_042021.nc | 05-Dec-2024 01:22 | 448077 | ||
| APRP7_TS_DEWT_042022.nc | 05-Dec-2024 01:37 | 442784 | ||
| APRP7_TS_DEWT_042023.nc | 05-Dec-2024 01:52 | 445658 | ||
| APRP7_TS_DEWT_052009.nc | 05-Dec-2024 00:03 | 443498 | ||
| APRP7_TS_DEWT_052010.nc | 05-Dec-2024 00:16 | 445222 | ||
| APRP7_TS_DEWT_052013.nc | 05-Dec-2024 00:21 | 446744 | ||
| APRP7_TS_DEWT_052014.nc | 05-Dec-2024 00:35 | 444982 | ||
| APRP7_TS_DEWT_052015.nc | 05-Dec-2024 00:44 | 429396 | ||
| APRP7_TS_DEWT_052016.nc | 05-Dec-2024 00:50 | 444790 | ||
| APRP7_TS_DEWT_052017.nc | 05-Dec-2024 00:56 | 450094 | ||
| APRP7_TS_DEWT_052018.nc | 05-Dec-2024 01:01 | 450406 | ||
| APRP7_TS_DEWT_052019.nc | 05-Dec-2024 01:07 | 450436 | ||
| APRP7_TS_DEWT_052020.nc | 05-Dec-2024 01:13 | 451749 | ||
| APRP7_TS_DEWT_052021.nc | 05-Dec-2024 01:24 | 448614 | ||
| APRP7_TS_DEWT_052022.nc | 05-Dec-2024 01:38 | 448300 | ||
| APRP7_TS_DEWT_052023.nc | 05-Dec-2024 01:54 | 434787 | ||
| APRP7_TS_DEWT_062009.nc | 05-Dec-2024 00:05 | 427051 | ||
| APRP7_TS_DEWT_062010.nc | 05-Dec-2024 00:16 | 449135 | ||
| APRP7_TS_DEWT_062013.nc | 05-Dec-2024 00:22 | 432417 | ||
| APRP7_TS_DEWT_062014.nc | 05-Dec-2024 00:37 | 449965 | ||
| APRP7_TS_DEWT_062015.nc | 05-Dec-2024 00:45 | 448222 | ||
| APRP7_TS_DEWT_062016.nc | 05-Dec-2024 00:50 | 450434 | ||
| APRP7_TS_DEWT_062017.nc | 05-Dec-2024 00:56 | 448804 | ||
| APRP7_TS_DEWT_062018.nc | 05-Dec-2024 01:02 | 450419 | ||
| APRP7_TS_DEWT_062019.nc | 05-Dec-2024 01:08 | 447705 | ||
| APRP7_TS_DEWT_062020.nc | 05-Dec-2024 01:14 | 435947 | ||
| APRP7_TS_DEWT_062021.nc | 05-Dec-2024 01:26 | 419246 | ||
| APRP7_TS_DEWT_062022.nc | 05-Dec-2024 01:38 | 440878 | ||
| APRP7_TS_DEWT_062023.nc | 05-Dec-2024 01:56 | 448941 | ||
| APRP7_TS_DEWT_072009.nc | 05-Dec-2024 00:07 | 448835 | ||
| APRP7_TS_DEWT_072010.nc | 05-Dec-2024 00:17 | 445933 | ||
| APRP7_TS_DEWT_072011.nc | 05-Dec-2024 00:20 | 451225 | ||
| APRP7_TS_DEWT_072013.nc | 05-Dec-2024 00:22 | 447324 | ||
| APRP7_TS_DEWT_072014.nc | 05-Dec-2024 00:39 | 443692 | ||
| APRP7_TS_DEWT_072015.nc | 05-Dec-2024 00:45 | 444953 | ||
| APRP7_TS_DEWT_072016.nc | 05-Dec-2024 00:51 | 430155 | ||
| APRP7_TS_DEWT_072017.nc | 05-Dec-2024 00:56 | 420330 | ||
| APRP7_TS_DEWT_072018.nc | 05-Dec-2024 01:02 | 434932 | ||
| APRP7_TS_DEWT_072019.nc | 05-Dec-2024 01:08 | 448184 | ||
| APRP7_TS_DEWT_072020.nc | 05-Dec-2024 01:14 | 447941 | ||
| APRP7_TS_DEWT_072021.nc | 05-Dec-2024 01:28 | 449003 | ||
| APRP7_TS_DEWT_072022.nc | 05-Dec-2024 01:39 | 449198 | ||
| APRP7_TS_DEWT_072023.nc | 05-Dec-2024 01:57 | 449274 | ||
| APRP7_TS_DEWT_082009.nc | 05-Dec-2024 00:09 | 447215 | ||
| APRP7_TS_DEWT_082010.nc | 05-Dec-2024 00:17 | 449187 | ||
| APRP7_TS_DEWT_082011.nc | 05-Dec-2024 00:20 | 441456 | ||
| APRP7_TS_DEWT_082013.nc | 05-Dec-2024 00:23 | 437709 | ||
| APRP7_TS_DEWT_082014.nc | 05-Dec-2024 00:40 | 448747 | ||
| APRP7_TS_DEWT_082015.nc | 05-Dec-2024 00:46 | 450501 | ||
| APRP7_TS_DEWT_082016.nc | 05-Dec-2024 00:51 | 441290 | ||
| APRP7_TS_DEWT_082017.nc | 05-Dec-2024 00:57 | 449737 | ||
| APRP7_TS_DEWT_082018.nc | 05-Dec-2024 01:03 | 450612 | ||
| APRP7_TS_DEWT_082019.nc | 05-Dec-2024 01:09 | 451395 | ||
| APRP7_TS_DEWT_082020.nc | 05-Dec-2024 01:15 | 449311 | ||
| APRP7_TS_DEWT_082021.nc | 05-Dec-2024 01:30 | 442831 | ||
| APRP7_TS_DEWT_082022.nc | 05-Dec-2024 01:39 | 428281 | ||
| APRP7_TS_DEWT_082023.nc | 05-Dec-2024 01:57 | 447019 | ||
| APRP7_TS_DEWT_092008.nc | 04-Dec-2024 23:51 | 447653 | ||
| APRP7_TS_DEWT_092009.nc | 05-Dec-2024 00:11 | 448061 | ||
| APRP7_TS_DEWT_092010.nc | 05-Dec-2024 00:18 | 449487 | ||
| APRP7_TS_DEWT_092011.nc | 05-Dec-2024 00:20 | 443765 | ||
| APRP7_TS_DEWT_092013.nc | 05-Dec-2024 00:23 | 444039 | ||
| APRP7_TS_DEWT_092014.nc | 05-Dec-2024 00:41 | 440778 | ||
| APRP7_TS_DEWT_092015.nc | 05-Dec-2024 00:46 | 434195 | ||
| APRP7_TS_DEWT_092016.nc | 05-Dec-2024 00:52 | 424387 | ||
| APRP7_TS_DEWT_092017.nc | 05-Dec-2024 00:57 | 447597 | ||
| APRP7_TS_DEWT_092018.nc | 05-Dec-2024 01:03 | 420089 | ||
| APRP7_TS_DEWT_092019.nc | 05-Dec-2024 01:09 | 450432 | ||
| APRP7_TS_DEWT_092020.nc | 05-Dec-2024 01:15 | 449939 | ||
| APRP7_TS_DEWT_092021.nc | 05-Dec-2024 01:32 | 423292 | ||
| APRP7_TS_DEWT_092022.nc | 05-Dec-2024 01:40 | 448886 | ||
| APRP7_TS_DEWT_092023.nc | 05-Dec-2024 01:58 | 448572 | ||
| APRP7_TS_DEWT_102008.nc | 04-Dec-2024 23:53 | 431305 | ||
| APRP7_TS_DEWT_102009.nc | 05-Dec-2024 00:13 | 421508 | ||
| APRP7_TS_DEWT_102010.nc | 05-Dec-2024 00:19 | 444319 | ||
| APRP7_TS_DEWT_102013.nc | 05-Dec-2024 00:24 | 420426 | ||
| APRP7_TS_DEWT_102014.nc | 05-Dec-2024 00:41 | 450559 | ||
| APRP7_TS_DEWT_102015.nc | 05-Dec-2024 00:47 | 450401 | ||
| APRP7_TS_DEWT_102016.nc | 05-Dec-2024 00:52 | 433780 | ||
| APRP7_TS_DEWT_102017.nc | 05-Dec-2024 00:58 | 444837 | ||
| APRP7_TS_DEWT_102018.nc | 05-Dec-2024 01:04 | 445230 | ||
| APRP7_TS_DEWT_102019.nc | 05-Dec-2024 01:10 | 443076 | ||
| APRP7_TS_DEWT_102020.nc | 05-Dec-2024 01:16 | 428371 | ||
| APRP7_TS_DEWT_102021.nc | 05-Dec-2024 01:34 | 446275 | ||
| APRP7_TS_DEWT_102022.nc | 05-Dec-2024 01:40 | 434135 | ||
| APRP7_TS_DEWT_102023.nc | 05-Dec-2024 01:58 | 444915 | ||
| APRP7_TS_DEWT_112008.nc | 04-Dec-2024 23:54 | 450897 | ||
| APRP7_TS_DEWT_112009.nc | 05-Dec-2024 00:13 | 447688 | ||
| APRP7_TS_DEWT_112010.nc | 05-Dec-2024 00:19 | 445964 | ||
| APRP7_TS_DEWT_112013.nc | 05-Dec-2024 00:24 | 444180 | ||
| APRP7_TS_DEWT_112014.nc | 05-Dec-2024 00:42 | 434522 | ||
| APRP7_TS_DEWT_112015.nc | 05-Dec-2024 00:47 | 431096 | ||
| APRP7_TS_DEWT_112016.nc | 05-Dec-2024 00:53 | 449909 | ||
| APRP7_TS_DEWT_112017.nc | 05-Dec-2024 00:58 | 450969 | ||
| APRP7_TS_DEWT_112018.nc | 05-Dec-2024 01:04 | 449889 | ||
| APRP7_TS_DEWT_112019.nc | 05-Dec-2024 01:10 | 441636 | ||
| APRP7_TS_DEWT_112020.nc | 05-Dec-2024 01:16 | 446368 | ||
| APRP7_TS_DEWT_112021.nc | 05-Dec-2024 01:35 | 438937 | ||
| APRP7_TS_DEWT_112022.nc | 05-Dec-2024 01:42 | 448954 | ||
| APRP7_TS_DEWT_112023.nc | 05-Dec-2024 01:59 | 433233 | ||
| APRP7_TS_DEWT_122008.nc | 04-Dec-2024 23:54 | 421935 | ||
| APRP7_TS_DEWT_122009.nc | 05-Dec-2024 00:13 | 1831065 | ||
| APRP7_TS_DEWT_122010.nc | 05-Dec-2024 00:19 | 1828731 | ||
| APRP7_TS_DEWT_122013.nc | 05-Dec-2024 00:25 | 1830397 | ||
| APRP7_TS_DEWT_122014.nc | 05-Dec-2024 00:42 | 1831234 | ||
| APRP7_TS_DEWT_122015.nc | 05-Dec-2024 00:48 | 1650476 | ||
| APRP7_TS_DEWT_122016.nc | 05-Dec-2024 00:53 | 1662302 | ||
| APRP7_TS_DEWT_122017.nc | 05-Dec-2024 00:59 | 1652470 | ||
| APRP7_TS_DEWT_122018.nc | 05-Dec-2024 01:05 | 1655856 | ||
| APRP7_TS_DEWT_122019.nc | 05-Dec-2024 01:11 | 1708339 | ||
| APRP7_TS_DEWT_122020.nc | 05-Dec-2024 01:17 | 1670578 | ||
| APRP7_TS_DEWT_122021.nc | 05-Dec-2024 01:35 | 1818708 | ||
| APRP7_TS_DEWT_122022.nc | 05-Dec-2024 01:44 | 1824203 | ||
| APRP7_TS_DEWT_122023.nc | 05-Dec-2024 01:59 | 1830854 | ||